Location: *
(45.0500°N, 12.0500°E)
Time: 18:26:37
(UTC+00:00)

Cosmos 1980 Rocket - Pass Details

Date: 09 April 2020
Orbit: 829 x 850 km, 71.0° (Epoch: 24 May)

Event Time Altitude Azimuth Distance (km) Brightness Sun altitude
Rises 19:53:44 0° 342° (NNW) 3,388 6.2 -20.7°
Reaches altitude 10° 19:56:47 10° 358° (N) 2,453 5.1 -21.1°
Maximum altitude 20:01:02 21° 47° (NE) 1,782 3.8 -21.7°
Enters shadow 20:02:17 20° 65° (ENE) 1,850 3.7 -21.9°
